Oroville, Washington, United States (98844)
Lat: 48.94N, Lon: 119.43W
Wx Zone: WAZ043
Local Info
Past Weather Observations for Today

NOTE: This archive is for the closest National Weather Service station to Oroville. Information may differ from the station used for current weather conditions.

Click here for Long-term Archive

Time Weather Temperature Dewpoint Humidity Pressure Winds Precip Visibility
18:53
Clear
28°F / -2°C 25°F / -4°C 86% 29.89 in
(1012 mb)
W 4.6 mph
(W 7 kph)
- 8SM
17:53
Clear
Fog And Mist
27°F / -3°C 25°F / -4°C 93% 29.86 in
(1011 mb)
SSW 4.6 mph
(SSW 7 kph)
- 6SM
16:53
Clear
Fog And Mist
30°F / -1°C 28°F / -2°C 93% 29.83 in
(1010 mb)
Variable 3.5 mph
(Variable 6 kph)
- 6SM
15:53
Clear
36°F / 2°C 30°F / -1°C 81% 29.8 in
(1009 mb)
Calm - 10SM
14:53
Clear
37°F / 3°C 34°F / 1°C 87% 29.74 in
(1007 mb)
Calm - 10SM
13:53
Clear
37°F / 3°C 34°F / 1°C 87% 29.71 in
(1006 mb)
N 3.5 mph
(N 6 kph)
- 10SM
12:53
Clear
37°F / 3°C 34°F / 1°C 87% 29.71 in
(1006 mb)
Calm - 10SM
11:53
Clear
36°F / 2°C 32°F / 0°C 87% 29.68 in
(1005 mb)
Calm - 9SM
10:53
Clear
36°F / 2°C 30°F / -1°C 81% 29.68 in
(1005 mb)
SE 5.8 mph
(SE 9 kph)
- 10SM
09:53
Clear
32°F / 0°C 28°F / -2°C 87% 29.65 in
(1004 mb)
S 10.4 mph
(S 17 kph)
- 10SM
08:53
Clear
30°F / -1°C 28°F / -2°C 93% 29.65 in
(1004 mb)
SSE 6.9 mph
(SSE 11 kph)
- 10SM
07:53
Partly Cloudy
28°F / -2°C 27°F / -3°C 93% 29.59 in
(1002 mb)
S 5.8 mph
(S 9 kph)
- 9SM
06:53
Partly Cloudy
27°F / -3°C 27°F / -3°C 100% 29.56 in
(1001 mb)
S 3.5 mph
(S 6 kph)
- 9SM
06:37
Partly Cloudy
28°F / -2°C 27°F / -3°C 93% 29.56 in
(1001 mb)
SSE 4.6 mph
(SSE 7 kph)
- 10SM
05:53
Mostly Cloudy
30°F / -1°C 28°F / -2°C 93% 29.53 in
(1000 mb)
S 6.9 mph
(S 11 kph)
- 10SM
05:49
Mostly Cloudy
30°F / -1°C 28°F / -2°C 93% 29.53 in
(1000 mb)
S 5.8 mph
(S 9 kph)
- 10SM
04:53
Partly Cloudy
30°F / -1°C 28°F / -2°C 93% 29.5 in
(999 mb)
SSE 9.2 mph
(SSE 15 kph)
- 9SM
03:53
Partly Cloudy
32°F / 0°C 30°F / -1°C 93% 29.47 in
(998 mb)
SSE 8.1 mph
(SSE 13 kph)
- 10SM
03:03
Partly Cloudy
34°F / 1°C 30°F / -1°C 87% 29.44 in
(997 mb)
S 8.1 mph
(S 13 kph)
- 10SM
02:53
Mostly Cloudy
34°F / 1°C 30°F / -1°C 87% 29.44 in
(997 mb)
SSE 8.1 mph
(SSE 13 kph)
- 10SM
01:53
Overcast
34°F / 1°C 30°F / -1°C 87% 29.42 in
(996 mb)
SSE 5.8 mph
(SSE 9 kph)
- 9SM
00:53
Overcast
34°F / 1°C 30°F / -1°C 87% 29.39 in
(995 mb)
S 9.2 mph
(S 15 kph)
- 9SM
00:24
Overcast
32°F / 0°C 30°F / -1°C 93% 29.39 in
(995 mb)
S 11.5 mph
(S 19 kph)
- 7SM
Time Weather Temperature Dewpoint Humidity Pressure Winds Precip Visibility


Weather for websites

WeatherForYou.com, LLC is not responsible for any damages or problems caused by this service. Current weather conditions are obtained from the closest station including government and personal stations which may have varying degrees of accuracy. Weather forecasts are derived from the NOAA NDFD. Like all things, this site belongs to Jesus Christ... He just trusts me to maintain it. If you have any questions or comments email webmaster@weatherforyou.com

Copyright © 2014, WeatherForYou.com LLC. All rights reserved.